• In Deutschland
  • Länderverzeichnis
  • Für 7 Tage
  • Wassertemperatur
  • Satellitenkarten
  • Wetterkarte
  • Widgets
  • user-avatar
    Anmelden

    Stündliche Wetter Hrasdan

    Heute, 23 Mai, Mittwoch

    Zeit Temperatur Niederschläge Wind Luftdruck Luftfeuchtigkeit
    00:00 +11°C° 0,2 mm 1 m/S 617 mmHg 90%
    01:00 +11°C° 0,1 mm 1 m/S 616 mmHg 90%
    02:00 +10°C° 0,1 mm 1 m/S 616 mmHg 91%
    03:00 +10°C° 0,1 mm 1 m/S 616 mmHg 91%
    04:00 +11°C° 0,1 mm 1 m/S 617 mmHg 89%
    05:00 +11°C° 0,1 mm 1 m/S 617 mmHg 87%
    06:00 +11°C° 0,1 mm 1 m/S 617 mmHg 85%
    07:00 +13°C° 0,1 mm 2 m/S 618 mmHg 78%
    08:00 +14°C° 0,1 mm 2 m/S 618 mmHg 71%
    09:00 +15°C° 0,1 mm 2 m/S 618 mmHg 64%
    10:00 +16°C° 0,2 mm 2 m/S 619 mmHg 61%
    11:00 +17°C° 0,2 mm 2 m/S 619 mmHg 58%
    12:00 +18°C° 0,2 mm 3 m/S 619 mmHg 55%
    13:00 +18°C° 0,5 mm 3 m/S 618 mmHg 56%
    14:00 +18°C° 0,5 mm 3 m/S 618 mmHg 57%
    15:00 +18°C° 0,5 mm 3 m/S 618 mmHg 58%
    16:00 +18°C° 0,4 mm 3 m/S 617 mmHg 61%
    17:00 +17°C° 0,4 mm 3 m/S 617 mmHg 65%
    18:00 +16°C° 0,4 mm 3 m/S 617 mmHg 68%
    19:00 +14°C° 0,1 mm 3 m/S 616 mmHg 71%
    20:00 +13°C° 0,1 mm 2 m/S 616 mmHg 73%
    21:00 +12°C° 0,1 mm 2 m/S 616 mmHg 75%
    22:00 +10°C° 0 mm 2 m/S 616 mmHg 74%
    23:00 +10°C° 0 mm 2 m/S 616 mmHg 73%

    Morgen, 24 Mai, Donnerstag

    Zeit Temperatur Niederschläge Wind Luftdruck Luftfeuchtigkeit
    00:00 +9°C° 0 mm 2 m/S 616 mmHg 73%
    01:00 +9°C° 0 mm 2 m/S 615 mmHg 73%
    02:00 +8°C° 0 mm 2 m/S 615 mmHg 73%
    03:00 +8°C° 0 mm 2 m/S 615 mmHg 73%
    04:00 +8°C° 0 mm 2 m/S 615 mmHg 71%
    05:00 +9°C° 0 mm 2 m/S 615 mmHg 70%
    06:00 +10°C° 0 mm 2 m/S 615 mmHg 69%
    07:00 +12°C° 0 mm 2 m/S 616 mmHg 62%
    08:00 +14°C° 0 mm 2 m/S 616 mmHg 54%
    09:00 +16°C° 0 mm 2 m/S 616 mmHg 46%
    10:00 +17°C° 0 mm 2 m/S 616 mmHg 45%
    11:00 +18°C° 0 mm 2 m/S 616 mmHg 43%
    12:00 +19°C° 0 mm 2 m/S 616 mmHg 42%
    13:00 +19°C° 0 mm 2 m/S 616 mmHg 43%
    14:00 +19°C° 0 mm 3 m/S 616 mmHg 44%
    15:00 +19°C° 0 mm 3 m/S 615 mmHg 45%
    16:00 +18°C° 0 mm 3 m/S 615 mmHg 50%
    17:00 +17°C° 0 mm 2 m/S 614 mmHg 54%
    18:00 +17°C° 0 mm 2 m/S 614 mmHg 59%
    19:00 +15°C° 0 mm 2 m/S 614 mmHg 63%
    20:00 +13°C° 0 mm 2 m/S 613 mmHg 67%
    21:00 +10°C° 0 mm 2 m/S 613 mmHg 71%
    22:00 +10°C° 0 mm 2 m/S 612 mmHg 71%
    23:00 +9°C° 0 mm 2 m/S 612 mmHg 72%

    übermorgen, 25 Mai, Freitag

    Zeit Temperatur Niederschläge Wind Luftdruck Luftfeuchtigkeit
    00:00 +9°C° 0 mm 2 m/S 612 mmHg 72%
    01:00 +9°C° 0 mm 2 m/S 612 mmHg 72%
    02:00 +9°C° 0 mm 1 m/S 612 mmHg 71%
    03:00 +9°C° 0 mm 1 m/S 611 mmHg 71%
    04:00 +10°C° 0 mm 1 m/S 612 mmHg 71%
    05:00 +11°C° 0 mm 1 m/S 612 mmHg 70%
    06:00 +12°C° 0 mm 1 m/S 612 mmHg 69%
    07:00 +14°C° 0 mm 1 m/S 613 mmHg 63%
    08:00 +15°C° 0 mm 1 m/S 613 mmHg 58%
    09:00 +18°C° 0 mm 1 m/S 614 mmHg 52%
    10:00 +18°C° 0,1 mm 2 m/S 614 mmHg 51%
    11:00 +19°C° 0,1 mm 2 m/S 614 mmHg 51%
    12:00 +20°C° 0,1 mm 2 m/S 613 mmHg 50%
    13:00 +20°C° 0,6 mm 2 m/S 613 mmHg 51%
    14:00 +20°C° 0,6 mm 2 m/S 613 mmHg 52%
    15:00 +20°C° 0,6 mm 2 m/S 613 mmHg 53%
    16:00 +19°C° 0,7 mm 2 m/S 612 mmHg 57%
    17:00 +19°C° 0,7 mm 1 m/S 612 mmHg 61%
    18:00 +18°C° 0,7 mm 1 m/S 612 mmHg 66%
    19:00 +16°C° 0,2 mm 1 m/S 612 mmHg 68%
    20:00 +14°C° 0,2 mm 1 m/S 611 mmHg 71%
    21:00 +13°C° 0,2 mm 1 m/S 611 mmHg 74%
    22:00 +13°C° 0,1 mm 1 m/S 611 mmHg 75%
    23:00 +12°C° 0,1 mm 1 m/S 611 mmHg 75%

    26 Mai, Samstag

    Zeit Temperatur Niederschläge Wind Luftdruck Luftfeuchtigkeit
    00:00 +12°C° 0,1 mm 1 m/S 611 mmHg 75%
    01:00 +12°C° 0,1 mm 1 m/S 611 mmHg 76%
    02:00 +11°C° 0,1 mm 1 m/S 611 mmHg 77%
    03:00 +11°C° 0,1 mm 1 m/S 611 mmHg 77%
    04:00 +12°C° 0,1 mm 1 m/S 611 mmHg 76%
    05:00 +12°C° 0,1 mm 1 m/S 611 mmHg 76%
    06:00 +13°C° 0,1 mm 1 m/S 612 mmHg 75%
    07:00 +14°C° 0,1 mm 1 m/S 612 mmHg 70%
    08:00 +16°C° 0,1 mm 1 m/S 613 mmHg 65%
    09:00 +18°C° 0,1 mm 1 m/S 613 mmHg 60%
    10:00 +19°C° 0,5 mm 1 m/S 613 mmHg 58%
    11:00 +19°C° 0,5 mm 2 m/S 613 mmHg 57%
    12:00 +20°C° 0,5 mm 2 m/S 613 mmHg 55%
    13:00 +20°C° 1,4 mm 2 m/S 613 mmHg 56%
    14:00 +19°C° 1,4 mm 2 m/S 613 mmHg 57%
    15:00 +19°C° 1,4 mm 2 m/S 613 mmHg 58%
    16:00 +18°C° 2,2 mm 2 m/S 612 mmHg 65%
    17:00 +17°C° 2,2 mm 3 m/S 612 mmHg 73%
    18:00 +14°C° 2,2 mm 3 m/S 612 mmHg 80%
    19:00 +14°C° 1,3 mm 2 m/S 612 mmHg 82%
    20:00 +13°C° 1,3 mm 2 m/S 612 mmHg 84%
    21:00 +13°C° 1,3 mm 2 m/S 613 mmHg 86%
    22:00 +12°C° 0,5 mm 1 m/S 613 mmHg 86%
    23:00 +12°C° 0,5 mm 1 m/S 613 mmHg 86%

    27 Mai, Sonntag

    Zeit Temperatur Niederschläge Wind Luftdruck Luftfeuchtigkeit
    00:00 +12°C° 0,5 mm 1 m/S 613 mmHg 85%
    01:00 +12°C° 0,2 mm 1 m/S 613 mmHg 86%
    02:00 +11°C° 0,2 mm 1 m/S 613 mmHg 86%
    03:00 +11°C° 0,2 mm 1 m/S 613 mmHg 87%
    04:00 +11°C° 0 mm 1 m/S 614 mmHg 86%
    05:00 +12°C° 0 mm 1 m/S 615 mmHg 86%
    06:00 +12°C° 0 mm 1 m/S 615 mmHg 85%
    07:00 +13°C° 0 mm 1 m/S 616 mmHg 81%
    08:00 +15°C° 0 mm 2 m/S 617 mmHg 76%
    09:00 +16°C° 0 mm 2 m/S 617 mmHg 71%
    10:00 +16°C° 0 mm 2 m/S 618 mmHg 69%
    11:00 +16°C° 0 mm 2 m/S 618 mmHg 68%
    12:00 +17°C° 0 mm 2 m/S 618 mmHg 66%
    13:00 +16°C° 0,1 mm 2 m/S 618 mmHg 67%
    14:00 +16°C° 0,1 mm 2 m/S 618 mmHg 69%
    15:00 +16°C° 0,1 mm 2 m/S 618 mmHg 70%
    16:00 +14°C° 0,1 mm 3 m/S 618 mmHg 73%
    17:00 +13°C° 0,1 mm 3 m/S 618 mmHg 76%
    18:00 +13°C° 0,1 mm 3 m/S 617 mmHg 79%
    19:00 +12°C° 0 mm 3 m/S 618 mmHg 82%
    20:00 +11°C° 0 mm 3 m/S 618 mmHg 85%
    21:00 +10°C° 0 mm 3 m/S 618 mmHg 88%
    22:00 +9°C° 0 mm 2 m/S 617 mmHg 88%
    23:00 +9°C° 0 mm 2 m/S 617 mmHg 89%

    28 Mai, Montag

    Zeit Temperatur Niederschläge Wind Luftdruck Luftfeuchtigkeit
    00:00 +9°C° 0 mm 2 m/S 617 mmHg 90%
    01:00 +9°C° 0 mm 1 m/S 617 mmHg 89%
    02:00 +9°C° 0 mm 1 m/S 617 mmHg 89%
    03:00 +9°C° 0 mm 1 m/S 617 mmHg 88%
    04:00 +10°C° 0 mm 1 m/S 617 mmHg 85%
    05:00 +11°C° 0 mm 1 m/S 617 mmHg 81%
    06:00 +11°C° 0 mm 0 m/S 617 mmHg 78%
    07:00 +14°C° 0 mm 1 m/S 618 mmHg 71%
    08:00 +16°C° 0 mm 1 m/S 618 mmHg 64%
    09:00 +19°C° 0 mm 1 m/S 618 mmHg 57%
    10:00 +19°C° 0 mm 2 m/S 618 mmHg 54%
    11:00 +20°C° 0 mm 2 m/S 618 mmHg 52%
    12:00 +21°C° 0 mm 2 m/S 618 mmHg 49%
    13:00 +21°C° 0,1 mm 2 m/S 618 mmHg 49%
    14:00 +23°C° 0,1 mm 2 m/S 618 mmHg 50%
    15:00 +23°C° 0,1 mm 2 m/S 617 mmHg 50%
    16:00 +21°C° 0,3 mm 2 m/S 617 mmHg 56%
    17:00 +21°C° 0,3 mm 1 m/S 617 mmHg 61%
    18:00 +20°C° 0,3 mm 1 m/S 616 mmHg 67%
    19:00 +18°C° 0,3 mm 1 m/S 616 mmHg 71%
    20:00 +16°C° 0,3 mm 1 m/S 616 mmHg 75%
    21:00 +14°C° 0,3 mm 1 m/S 616 mmHg 79%
    22:00 +14°C° 0,2 mm 2 m/S 616 mmHg 80%
    23:00 +13°C° 0,2 mm 2 m/S 616 mmHg 82%
    Mehr zeigen